XML Sitemap

This is a XML Sitemap which is supposed to be processed by search engines which follow the XML Sitemap standard like Ask.com, Bing, Google and Yahoo.
It was generated using the WordPress content management system and the Google Sitemap Generator Plugin by Arne Brachhold.
You can find more information about XML sitemaps on sitemaps.org and Google's list of sitemap programs.

URLPriorityChange frequencyLast modified (GMT)
https://100frames.com/34-fiscal-year-calendar-2019-printable/50%Daily2019-03-09 19:00
https://100frames.com/20-8-x-11-printable-calendar/50%Daily2019-03-09 18:57
https://100frames.com/31-free-printable-advent-calendar-tags/50%Daily2019-03-09 18:56
https://100frames.com/33-2019-calendar-nz-printable/50%Daily2019-03-09 18:56
https://100frames.com/33-2019-printable-cyearly-calendar/50%Daily2019-03-09 18:53
https://100frames.com/32-free-printable-may-calendar-2019/50%Daily2019-03-09 18:51
https://100frames.com/35-september-blank-calendar-template/50%Daily2019-03-09 18:51
https://100frames.com/31-cartoon-calendars-printable/50%Daily2019-03-09 18:48
https://100frames.com/30-printable-calendar-graph-paper/50%Daily2019-03-09 18:47
https://100frames.com/35-free-printable-calendar-headers/50%Daily2019-03-09 18:45
https://100frames.com/31-teacher-planner-calendar-free-printables/50%Daily2019-03-09 18:44
https://100frames.com/35-printable-calendar-four-months-per-page/50%Daily2019-03-09 18:42
https://100frames.com/30-december-2019-calendar-easter/50%Daily2019-03-09 18:41
https://100frames.com/33-september-2019-calendar-nz/50%Daily2019-03-09 18:39
https://100frames.com/33-october-2019-calendar-pdf/50%Daily2019-03-09 18:36
https://100frames.com/31-printable-2019-acts-of-kindness-calendar/50%Daily2019-03-09 18:35
https://100frames.com/32-december-2019-daily-calendar/50%Daily2019-03-09 18:34
https://100frames.com/30-landscape-calendar-2019-printable/50%Daily2019-03-09 18:32
https://100frames.com/34-printable-calendar-2019-ireland/50%Daily2019-03-09 18:32
https://100frames.com/30-may-15-calendar-printable/50%Daily2019-03-09 18:29
https://100frames.com/30-august-2019-printable-calendar-vertical/50%Daily2019-03-09 18:27
https://100frames.com/34-free-printable-spanish-calendar-worksheets/50%Daily2019-03-09 18:25
https://100frames.com/33-2019-online-calendar/50%Daily2019-03-09 18:24
https://100frames.com/30-chinese-zodiac-calendar-free-printable/50%Daily2019-03-09 18:21
https://100frames.com/25-feb-2019-monthly-calendar/50%Daily2019-03-09 18:20
https://100frames.com/30-editable-july-2019-calendar/50%Daily2019-03-09 18:19
https://100frames.com/25-printable-calendar-word/50%Daily2019-03-09 18:16
https://100frames.com/34-weekly-printable-calendar-with-times/50%Daily2019-03-09 18:16
https://100frames.com/33-vertex42-printable-calendar/50%Daily2019-03-09 18:15
https://100frames.com/35-free-interactive-printable-calendar/50%Daily2019-03-09 18:13
https://100frames.com/30-printable-calendar-august-october-2019/50%Daily2019-03-09 18:11
https://100frames.com/35-free-may-2019-calendar/50%Daily2019-03-09 18:11
https://100frames.com/32-free-printable-binder-calendars/50%Daily2019-03-09 18:09
https://100frames.com/31-free-march-2019-calendar-printable/50%Daily2019-03-09 18:06
https://100frames.com/31-september-2019-printable-calendar-south-africa/50%Daily2019-03-09 18:06
https://100frames.com/31-free-printable-2019-calendar-with-us-holidays/50%Daily2019-03-09 18:04
https://100frames.com/35-christmas-story-advent-calendar-printable/50%Daily2019-03-09 18:01
https://100frames.com/26-august-2019-calendar/50%Daily2019-03-09 18:00
https://100frames.com/35-november-2019-zimsec-timetable/50%Daily2019-03-09 17:59
https://100frames.com/31-free-printable-april-calendar/50%Daily2019-03-09 17:57
https://100frames.com/34-large-size-printable-calendar-color-coded/50%Daily2019-03-09 17:55
https://100frames.com/32-chrome-printable-calendar-add-ons/50%Daily2019-03-09 17:55
https://100frames.com/33-blank-may-calendar-for-kindergarten/50%Daily2019-03-09 17:53
https://100frames.com/32-44-school-calendar-2019-20/50%Daily2019-03-09 17:50
https://100frames.com/34-editable-calendar-august-2019/50%Daily2019-03-09 17:51
https://100frames.com/33-free-bi-monthly-printable-calendar-2019/50%Daily2019-03-09 17:47
https://100frames.com/32-my-calendar-app/50%Daily2019-03-09 17:45
https://100frames.com/30-magnetic-classroom-calendar/50%Daily2019-03-09 17:44
https://100frames.com/34-christmas-day-calendar-2019/50%Daily2019-03-09 17:42
https://100frames.com/35-weekly-calendar-printable-for-kids/50%Daily2019-03-09 17:40
https://100frames.com/32-trumbull-public-schools-printable-calendar/50%Daily2019-03-09 17:40
https://100frames.com/33-doane-academic-calendar/50%Daily2019-03-09 17:37
https://100frames.com/30-advent-calendar-gift-ideas/50%Daily2019-03-09 17:35
https://100frames.com/30-lunar-calendar-november-2019-2020/50%Daily2019-03-09 17:36
https://100frames.com/31-red-sox-calendar/50%Daily2019-03-09 17:33
https://100frames.com/30-printable-august-july-calendar/50%Daily2019-03-09 17:30
https://100frames.com/31-free-printable-mom-calendar/50%Daily2019-03-09 17:30
https://100frames.com/34-printable-calendar-june-september-2019/50%Daily2019-03-09 17:28
https://100frames.com/31-june-2019-calendar-printable-with-notes/50%Daily2019-03-09 17:26
https://100frames.com/35-oct-month-calendar-2019/50%Daily2019-03-09 17:25
https://100frames.com/33-kids-tracing-day-calendar-binder-printables/50%Daily2019-03-09 17:23
https://100frames.com/27-calendar-monthly-planner-printable/50%Daily2019-03-09 17:21
https://100frames.com/30-sp-500-earnings-calendar/50%Daily2019-03-09 17:20
https://100frames.com/31-free-june-calendar/50%Daily2019-03-09 17:19
https://100frames.com/30-cute-minimal-printable-monthly-calendar/50%Daily2019-03-09 17:16
https://100frames.com/25-july-blank-monthly-calendar/50%Daily2019-03-09 17:15
https://100frames.com/31-printable-annual-calendar-template/50%Daily2019-03-09 17:14
https://100frames.com/30-year-calendar-printable-2019/50%Daily2019-03-09 17:11
https://100frames.com/31-march-2019-printable-calendar-tumblr/50%Daily2019-03-09 17:10
https://100frames.com/30-advent-calendar-free-printable/50%Daily2019-03-09 17:09
https://100frames.com/30-yearly-wall-calendar/50%Daily2019-03-09 17:07
https://100frames.com/33-personalized-calendar-printable/50%Daily2019-03-09 17:05
https://100frames.com/35-printable-calendar-school-year-17-18/50%Daily2019-03-09 17:06
https://100frames.com/30-2019-calendar-in-a4-size-printable-note-book/50%Daily2019-03-09 17:03
https://100frames.com/35-2019-printable-calendar-with-holidays-usa/50%Daily2019-03-09 17:01
https://100frames.com/34-printable-christian-advent-calendar/50%Daily2019-03-09 17:00
https://100frames.com/32-calendar-august-sept-2019/50%Daily2019-03-09 16:58
https://100frames.com/30-budget-calendar-2019-printable/50%Daily2019-03-09 16:56
https://100frames.com/35-printable-calendar-partial-2019/50%Daily2019-03-09 16:55
https://100frames.com/34-printable-calendar-weekly-with-hours/50%Daily2019-03-09 16:54
https://100frames.com/19-monday-friday-may-2019-calendar-printable/50%Daily2019-03-09 16:51
https://100frames.com/30-best-calendar-2019-printable/50%Daily2019-03-09 16:50
https://100frames.com/33-printable-calendar-oct-2019/50%Daily2019-03-09 16:49
https://100frames.com/31-free-lined-weekly-calendar-printable/50%Daily2019-03-09 16:47
https://100frames.com/35-february-2019-calendar-printable-calendar/50%Daily2019-03-09 16:46
https://100frames.com/32-dadeschools-calendar-2019/50%Daily2019-03-09 16:45
https://100frames.com/23-printable-april-calendar-2019-australia/50%Daily2019-03-09 16:42
https://100frames.com/26-printable-calendar-lots-of-writing-space/50%Daily2019-03-09 16:40
https://100frames.com/26-may-2019-printable-calendar-vertical/50%Daily2019-03-09 16:40
https://100frames.com/31-printable-blank-daily-calendar-with-times/50%Daily2019-03-09 16:38
https://100frames.com/34-printable-appointment-calendar-template/50%Daily2019-03-09 16:35
https://100frames.com/31-decade-calendar-printable/50%Daily2019-03-09 16:36
https://100frames.com/33-download-printable-monthly-calendar-2019/50%Daily2019-03-09 16:33
https://100frames.com/32-free-printable-editable-eight-week-calendar/50%Daily2019-03-09 16:31
https://100frames.com/35-columbus-state-calendar/50%Daily2019-03-09 16:31
https://100frames.com/32-kids-daily-calendar-printable-confessions-of-a-homeschooler/50%Daily2019-03-09 16:29
https://100frames.com/34-printable-full-month-calendar/50%Daily2019-03-09 16:27
https://100frames.com/34-inspirational-sample-free-printable-monthly-calendar-january-2019/50%Daily2019-03-09 16:25
https://100frames.com/34-retirement-calendar-printable/50%Daily2019-03-09 16:25
https://100frames.com/32-monthly-calendar-march-2019/50%Daily2019-03-09 16:22
https://100frames.com/33-how-to-sync-google-calendars/50%Daily2019-03-09 16:20
https://100frames.com/33-calendar-2019-and-2019-printable-template/50%Daily2019-03-09 16:20
https://100frames.com/30-chinese-calendar-september-1-2019/50%Daily2019-03-09 16:17
https://100frames.com/24-jubilee-years-calendar/50%Daily2019-03-09 16:15
https://100frames.com/35-printable-calendar-labs-template-free/50%Daily2019-03-09 16:16
https://100frames.com/34-two-week-calendar-printable-free/50%Daily2019-03-09 16:13
https://100frames.com/30-daily-countdown-calendar-printable/50%Daily2019-03-09 16:11
https://100frames.com/35-t25-calendar-alpha-printable/50%Daily2019-03-09 16:11
https://100frames.com/23-printable-calendar-may-june-july-august-september-2019/50%Daily2019-03-09 16:09
https://100frames.com/30-double-calendar-printable/50%Daily2019-03-09 16:07
https://100frames.com/33-printable-advent-calendar-bible-verses/50%Daily2019-03-09 16:05
https://100frames.com/30-printable-advent-calendar-activities/50%Daily2019-03-09 16:04
https://100frames.com/35-queens-events-calendar/50%Daily2019-03-09 16:02
https://100frames.com/25-create-a-printable-calendar-2019/50%Daily2019-03-09 16:00
https://100frames.com/34-printable-persian-calendar/50%Daily2019-03-09 16:00
https://100frames.com/35-disneyland-attendance-calendar/50%Daily2019-03-09 15:58
https://100frames.com/30-alexa-calendar-reminders/50%Daily2019-03-09 15:55
https://100frames.com/33-episcopal-liturgical-calendar/50%Daily2019-03-09 15:56
https://100frames.com/34-free-calendar-printable-september-2019/50%Daily2019-03-09 15:53
https://100frames.com/30-free-printable-hourly-calendar-template/50%Daily2019-03-09 15:51
https://100frames.com/35-calendar-cute-printable-january-2019/50%Daily2019-03-09 15:50
https://100frames.com/31-june-2019-calendar-template/50%Daily2019-03-09 15:49
https://100frames.com/30-august-calendar-header-printable/50%Daily2019-03-09 15:47
https://100frames.com/30-cute-monthly-calendar-free-printable/50%Daily2019-03-09 15:45
https://100frames.com/30-nicki-minaj-queen-album-zip/50%Daily2019-03-09 15:44
https://100frames.com/32-november-calendar-heading-printable/50%Daily2019-03-09 15:42
https://100frames.com/30-open-office-weekly-calendar-2019-printable/50%Daily2019-03-09 15:40
https://100frames.com/34-6-month-calendar-printable-2019/50%Daily2019-03-09 15:40
https://100frames.com/32-april-2019-calendar-canada-printable/50%Daily2019-03-09 15:37
https://100frames.com/31-word-of-the-day-calendar/50%Daily2019-03-09 15:36
https://100frames.com/30-may-17-calendar-printable/50%Daily2019-03-09 15:34
https://100frames.com/34-2019-calendar-google-sheets/50%Daily2019-03-09 15:32
https://100frames.com/26-free-calendar-october-2019/50%Daily2019-03-09 15:30
https://100frames.com/33-calendar-classroom-printables/50%Daily2019-03-09 15:30
https://100frames.com/30-january-2019-calendar-singapore-printable/50%Daily2019-03-09 15:27
https://100frames.com/31-free-printable-calendar-labels/50%Daily2019-03-09 15:25
https://100frames.com/31-moon-calendar-july-2019/50%Daily2019-03-09 15:24
https://100frames.com/31-printable-calendar-big-boxes/50%Daily2019-03-09 15:21
https://100frames.com/33-month-of-june-2019/50%Daily2019-03-09 15:20
https://100frames.com/34-june-july-calendar-2019-printable/50%Daily2019-03-09 15:18
https://100frames.com/31-free-microsoft-excel-templates/50%Daily2019-03-09 15:16
https://100frames.com/35-new-york-school-calendar/50%Daily2019-03-09 15:15
https://100frames.com/34-april-2019-desk-calendar-printable/50%Daily2019-03-09 15:14
https://100frames.com/32-portland-maine-events-calendar/50%Daily2019-03-09 15:12
https://100frames.com/33-printable-mnthly-calendar/50%Daily2019-03-09 15:10
https://100frames.com/31-november-2019-calendar-word/50%Daily2019-03-09 15:10
https://100frames.com/31-blank-printable-february-2019-calendar/50%Daily2019-03-09 15:07
https://100frames.com/32-june-calendar-template/50%Daily2019-03-09 15:06
https://100frames.com/30-august-and-september-2019-calendar/50%Daily2019-03-09 15:04
https://100frames.com/32-beckett-show-calendar/50%Daily2019-03-09 15:02
https://100frames.com/34-cute-free-printable-calendar-february-2019-2/50%Daily2019-03-09 15:00
https://100frames.com/35-calendar-template-2019-february/50%Daily2019-03-09 15:00
https://100frames.com/34-august-2019-printable-calendar-template/50%Daily2019-03-09 14:57
https://100frames.com/31-free-printable-lesson-plan-calendar/50%Daily2019-03-09 14:55
https://100frames.com/33-july-2019-calendar-template/50%Daily2019-03-09 14:55
https://100frames.com/30-cize-workout-calendar-printable/50%Daily2019-03-09 14:53
https://100frames.com/30-printable-2019-www-calendars-com/50%Daily2019-03-09 14:51
https://100frames.com/35-printable-blank-calendar-august-2019/50%Daily2019-03-09 14:50
https://100frames.com/33-make-printable-calendar-on-mac/50%Daily2019-03-09 14:49